Location: Coatesville
(39.9830°N, 75.8240°W)
Time: 08:57:05
(UTC-04:00)

Hubble Space Telescope - Visible Passes

Search period start: 25 March 2019 00:00
Search period end: 04 April 2019 00:00
Orbit: 537 x 540 km, 28.5° (Epoch: 24 March)

Date Brightness Start Highest point End Pass type
(mag) Time Alt. Az. Time Alt. Az. Time Alt. Az.
25 Mar 2.9 20:52:14 10° SSW 20:53:49 13° S 20:53:49 13° S visible
26 Mar 2.7 20:41:22 10° SSW 20:43:43 15° S 20:44:06 15° SSE visible
27 Mar 2.7 20:30:36 10° SSW 20:33:06 16° S 20:34:20 14° SSE visible
28 Mar 2.8 20:19:54 10° SW 20:22:30 16° S 20:24:32 12° SE visible
29 Mar 2.8 20:09:16 10° SW 20:11:54 16° S 20:14:33 10° SE visible
30 Mar 2.8 19:58:41 10° SW 20:01:18 16° S 20:03:56 10° SE visible
31 Mar 2.9 19:48:09 10° SW 19:50:43 16° S 19:53:16 10° SE visible
